Tracking 19489 objects as of 22-Jan-2019
HD Live streaming from Space Station
objects crossing your sky now

GOES 9

Track GOES 9 now!
GOES 9 is classified as:


NORAD ID: 23581
Int'l Code: 1995-025A
Perigee: 36,200.6 km
Apogee: 36,221.4 km
Inclination: 11.5 °
Period: 1,457.5 minutes
Semi major axis: 42581 km
RCS: 15.0119 m2 (large)
Launch date: May 23, 1995
Source: United States (US)
Launch site: AIR FORCE EASTERN TEST RANGE (AFETR)
aabbcc
Your satellite tracking list
Your tracking list is empty




NASA's NSSDC Master Catalog

Two Line Element Set (TLE):
1 23581U 95025A   19022.22102606 -.00000151  00000-0  00000+0 0  9990
2 23581  11.5383  33.4131 0002440 303.2847 236.4938  0.98801666 86041
Source of the keplerian elements: AFSPC